Regional Weather Roundup
Issued by NWS Sioux Falls, SD

Home | Current Version | Previous Version | Graphics & Text | Print | Product List | Glossary On
Versions: 1 2 3 4 5 6 7 8 9 10 11 12 13 14 15 16 17 18 19 20 21 22 23 24 25 26 27 28 29 30 31 32 33 34 35 36 37 38 39 40 41 42 43 44 45 46 47 48 49 50
000
ASUS43 KFSD 030610
RWRFSD

WEATHER ROUNDUP FOR SE SOUTH DAKOTA/SW MINNESOTA/NW IOWA
NATIONAL WEATHER SERVICE SIOUX FALLS SD
1200 AM CST SAT DEC 03 2016

NOTE: "FAIR" INDICATES FEW OR NO CLOUDS BELOW 12,000 FEET WITH NO
SIGNIFICANT WEATHER AND OR OBSTRUCTIONS TO VISIBILITY.


SDZ038>040-050-052>070-030700-
SOUTHEAST SOUTH DAKOTA

CITY           SKY/WX    TMP DP  RH WIND       PRES   REMARKS
CHAMBERLAIN    FOG       26  25  99 SE5       30.27R VSB 3/4 WCI  20
6HR MIN TEMP:  24; 6HR MAX TEMP:  32;

HURON          CLOUDY    29  27  92 SE6       30.29F WCI  23
6HR MIN TEMP:  27; 6HR MAX TEMP:  29;

MADISON        CLOUDY    27  27 100 CALM      30.29S
MITCHELL       CLEAR     29  27  92 SE5       30.30F WCI  24
6HR MIN TEMP:  29; 6HR MAX TEMP:  31;

SIOUX FALLS    CLOUDY    29  24  82 N5        30.29F WCI  24
6HR MIN TEMP:  29; 6HR MAX TEMP:  31;

WINNER         FAIR      26  22  84 SE6       30.24R WCI  19
YANKTON        CLEAR     27  25  93 CALM      30.31R
$$

MNZ071-072-080-081-089-090-097-098-030700-
SOUTHWEST MINNESOTA

CITY           SKY/WX    TMP DP  RH WIND       PRES   REMARKS
FAIRMONT       CLOUDY    30  21  69 W8        30.31F WCI  22
JACKSON        CLOUDY    28  21  74 NW6       30.30S WCI  22
LUVERNE        CLOUDY    30  23  74 NW3       30.31S
MARSHALL       CLOUDY    27  21  78 NW6       30.32  WCI  20
6HR MIN TEMP:  27; 6HR MAX TEMP:  29; 6HR PCP: TRACE;

MONTEVIDEO     CLOUDY    27  25  93 CALM      30.33R
PIPESTONE      CLOUDY    27  21  80 NW6       30.29S WCI  20
REDWOOD FALLS  CLOUDY    29  20  69 NW3       30.32R
TRACY          CLOUDY    28  22  78 NW5       30.31S WCI  23
WINDOM         CLOUDY    28  19  69 NW12G18   30.30S WCI  18
WORTHINGTON    CLOUDY    27  22  81 NW8       30.30  WCI  19
$$

IAZ001>003-012>014-020>022-031-032-NEZ013-014-SDZ071-030700-
NORTHWEST IOWA

CITY           SKY/WX    TMP DP  RH WIND       PRES   REMARKS
CHEROKEE       CLOUDY    32  30  92 CALM      30.31F
DENISON        CLOUDY    34  30  86 N3        30.30S
ESTHERVILLE    CLOUDY    29  25  85 W3        30.30S
LE MARS        CLOUDY    32  28  86 SE5       30.32F WCI  27
ORANGE CITY    CLOUDY    30  28  93 CALM      30.30R
SHELDON        CLOUDY    30  28  93 CALM      30.28F
SIOUX CITY     CLEAR     28  25  88 CALM      30.33R
6HR MIN TEMP:  27; 6HR MAX TEMP:  37;

SPENCER        CLOUDY    31  26  82 NW5       30.30S WCI  26
6HR MIN TEMP:  31; 6HR MAX TEMP:  33;

STORM LAKE     CLOUDY    32  28  86 NW6       30.30F WCI  26
$$

ABBREVIATIONS USED IN REMARKS
   TC - TEMPERATURE IN CELSIUS
  WCI - WIND CHILL INDEX
   HX - HEAT INDEX
  VSB - VISIBILITY





USA.gov is the U.S. government's official web portal to all federal, state and local government web resources and services.